Weather History for Martinsville, VA

Change the Weather History Date:

Wednesday, February 20, 2013

  Actual Average (KGSO) Record (KGSO)
Temperature  
Mean Temperature 42 °F 44 °F  
Max Temperature 54 °F 54 °F 74 °F (1922)
Min Temperature 31 °F 33 °F 14 °F (1934)
Degree Days  
Heating Degree Days 22 22  
Month to date heating degree days 469  
Since 1 July heating degree days 2692  
Cooling Degree Days 0 0  
Month to date cooling degree days 0  
Year to date cooling degree days 0  
Moisture  
Dew Point 11 °F    
Average Humidity 30    
Maximum Humidity 54    
Minimum Humidity 15    
Precipitation  
Precipitation 0.00 in 0.11 in 1.48 in (1904)
Month to date precipitation 2.04  
Year to date precipitation 5.10  
Snow  
Snow 0.00 in 0.10 in 2.00 in (1904)
Month to date snowfall 1.8  
Since 1 July snowfall 6.1  
Snow Depth -    
Sea Level Pressure  
Sea Level Pressure 30.06 in    
Wind  
Wind Speed 6 mph (WNW)    
Max Wind Speed 15 mph    
Max Gust Speed 24 mph    
Visibility 10 miles    
Events      
T = Trace of Precipitation, MM = Missing Value Source: NWS Daily Summary

Daily Weather History Graph

Daily Weather History Graph

Search for Another Location

Airport:

Trip Planner

Search our weather history database for the weather conditions in past years. The results will help you decide how hot, cold, wet, or windy it might be!

Date:

Astronomy

Feb. 20, 2013 Rise Set
Actual Time 7:01 AM EST 6:06 PM EST
Civil Twilight 6:35 AM EST 6:32 PM EST
Nautical Twilight 6:05 AM EST 7:02 PM EST
Astronomical Twilight 5:35 AM EST 7:32 PM EST
Moon 1:30 PM EST (2/20) 3:16 AM EST (2/20)
Length of Visible Light 11h 56m
Length of Day
11h 04m
Waxing Gibbous, 76% of the Moon is Illuminated
Feb 20
Waxing Gibbous
Feb 25
Full
Mar 4
Last Quarter
Mar 11
New
Mar 19
First Quarter

Hourly Weather History & Observations

Time (EST) Temp. Windchill Dew Point Humidity Pressure Visibility Wind Dir Wind Speed Gust Speed Precip Events Conditions
12:15 AM 41.0 °F 37.1 °F 15.1 °F 35% 30.00 in 10.0 mi WNW 5.8 mph - N/A   Clear
12:35 AM 41.5 °F 38.6 °F 14.0 °F 33% 30.00 in 10.0 mi WNW 4.6 mph - N/A   Clear
12:55 AM 41.0 °F 35.2 °F 14.5 °F 34% 30.01 in 10.0 mi WNW 9.2 mph 16.1 mph N/A   Clear
1:15 AM 40.5 °F 37.3 °F 15.4 °F 36% 30.01 in 10.0 mi West 4.6 mph - N/A   Clear
1:35 AM 40.3 °F 36.3 °F 15.4 °F 37% 30.02 in 10.0 mi WNW 5.8 mph 19.6 mph N/A   Clear
1:55 AM 39.4 °F 37.2 °F 16.2 °F 39% 30.02 in 10.0 mi West 3.5 mph - N/A   Clear
2:15 AM 38.7 °F 34.3 °F 16.3 °F 40% 30.02 in 10.0 mi WNW 5.8 mph - N/A   Clear
2:35 AM 37.8 °F 33.3 °F 17.2 °F 43% 30.01 in 10.0 mi WNW 5.8 mph - N/A   Clear
2:55 AM 37.4 °F 33.8 °F 16.3 °F 42% 30.01 in 10.0 mi WNW 4.6 mph - N/A   Clear
3:15 AM 37.2 °F 31.9 °F 14.0 °F 39% 30.02 in 10.0 mi NW 6.9 mph - N/A   Clear
3:35 AM 37.0 °F 32.4 °F 12.4 °F 36% 30.02 in 10.0 mi WNW 5.8 mph - N/A   Clear
4:15 AM 36.5 °F - 12.2 °F 37% 30.02 in 10.0 mi Calm Calm - N/A   Clear
4:35 AM 34.2 °F - 13.5 °F 43% 30.02 in 10.0 mi Calm Calm - N/A   Clear
4:55 AM 32.5 °F - 14.9 °F 48% 30.02 in 10.0 mi Calm Calm - N/A   Clear
5:15 AM 31.8 °F 28.5 °F 16.7 °F 54% 30.03 in 10.0 mi West 3.5 mph - N/A   Clear
5:35 AM 33.6 °F 29.4 °F 14.5 °F 46% 30.04 in 10.0 mi NW 4.6 mph - N/A   Clear
5:55 AM 33.3 °F 30.2 °F 14.7 °F 47% 30.04 in 10.0 mi West 3.5 mph - N/A   Clear
6:15 AM 34.2 °F 31.2 °F 13.5 °F 43% 30.04 in 10.0 mi WSW 3.5 mph - N/A   Clear
6:35 AM 33.6 °F - 13.6 °F 44% 30.04 in 10.0 mi Calm Calm - N/A   Clear
7:15 AM 33.1 °F 28.7 °F 14.0 °F 46% 30.05 in 10.0 mi West 4.6 mph - N/A   Clear
7:55 AM 36.5 °F 33.9 °F 12.0 °F 37% 30.05 in 10.0 mi West 3.5 mph - N/A   Clear
8:35 AM 39.0 °F 34.8 °F 12.2 °F 33% 30.05 in 10.0 mi WNW 5.8 mph - N/A   Clear
8:55 AM 39.7 °F 37.6 °F 12.2 °F 32% 30.06 in 10.0 mi West 3.5 mph - N/A   Clear
9:15 AM 40.8 °F 36.9 °F 11.7 °F 30% 30.06 in 10.0 mi NW 5.8 mph - N/A   Clear
9:35 AM 42.3 °F 36.8 °F 10.4 °F 27% 30.06 in 10.0 mi NW 9.2 mph - N/A   Clear
9:55 AM 43.5 °F 40.1 °F 10.8 °F 26% 30.06 in 10.0 mi NW 5.8 mph - N/A   Clear
10:15 AM 44.6 °F 42.2 °F 9.1 °F 24% 30.06 in 10.0 mi North 4.6 mph - N/A   Clear
10:35 AM 45.9 °F 43.6 °F 9.5 °F 23% 30.07 in 10.0 mi NW 4.6 mph - N/A   Clear
10:55 AM 46.8 °F - 8.6 °F 21% 30.07 in 10.0 mi NW 8.1 mph 24.2 mph N/A   Clear
11:15 AM 47.3 °F - 9.0 °F 21% 30.07 in 10.0 mi WNW 3.5 mph - N/A   Clear
11:35 AM 48.9 °F - 10.0 °F 21% 30.06 in 10.0 mi WSW 9.2 mph - N/A   Clear
11:55 AM 49.1 °F - 7.9 °F 19% 30.06 in 10.0 mi NW 8.1 mph - N/A   Clear
12:15 PM 50.0 °F - 7.5 °F 18% 30.06 in 10.0 mi West 9.2 mph - N/A   Clear
12:35 PM 51.1 °F - 7.2 °F 17% 30.05 in 10.0 mi West 6.9 mph - N/A   Clear
12:55 PM 51.1 °F - 8.8 °F 18% 30.04 in 10.0 mi West 6.9 mph 17.3 mph N/A   Clear
1:15 PM 52.0 °F - 7.7 °F 17% 30.04 in 10.0 mi WNW 9.2 mph 16.1 mph N/A   Clear
1:35 PM 52.5 °F - 6.4 °F 16% 30.03 in 10.0 mi WNW 10.4 mph 17.3 mph N/A   Clear
1:55 PM 52.9 °F - 7.5 °F 16% 30.03 in 10.0 mi WSW 8.1 mph 17.3 mph N/A   Clear
2:15 PM 53.1 °F - 7.3 °F 16% 30.03 in 10.0 mi WSW 9.2 mph - N/A   Clear
2:35 PM 54.0 °F - 7.3 °F 15% 30.02 in 10.0 mi West 10.4 mph 17.3 mph N/A   Clear
2:55 PM 53.1 °F - 8.4 °F 17% 30.02 in 10.0 mi West 8.1 mph - N/A   Clear
3:15 PM 52.5 °F - 7.2 °F 16% 30.02 in 10.0 mi West 9.2 mph - N/A   Clear
3:35 PM 52.5 °F - 6.8 °F 16% 30.02 in 10.0 mi West 6.9 mph 17.3 mph N/A   Clear
3:55 PM 51.4 °F - 6.3 °F 16% 30.02 in 10.0 mi WNW 6.9 mph - N/A   Clear
4:15 PM 52.5 °F - 6.4 °F 16% 30.02 in 10.0 mi NW 8.1 mph - N/A   Clear
4:35 PM 50.9 °F - 7.0 °F 17% 30.03 in 10.0 mi WNW 6.9 mph - N/A   Clear
4:55 PM 50.2 °F - 10.8 °F 21% 30.03 in 10.0 mi West 4.6 mph - N/A   Clear
5:15 PM 49.3 °F - 7.9 °F 19% 30.04 in 10.0 mi NW 5.8 mph - N/A   Clear
5:35 PM 48.0 °F - 7.7 °F 19% 30.06 in 10.0 mi WNW 5.8 mph - N/A   Clear
5:55 PM 45.9 °F 43.6 °F 9.5 °F 23% 30.06 in 10.0 mi WNW 4.6 mph - N/A   Clear
6:15 PM 44.6 °F - 8.6 °F 23% 30.08 in 10.0 mi Calm Calm - N/A   Clear
6:35 PM 41.4 °F 38.4 °F 12.4 °F 31% 30.09 in 10.0 mi NNW 4.6 mph - N/A   Clear
6:55 PM 39.6 °F 36.3 °F 12.9 °F 34% 30.10 in 10.0 mi NNW 4.6 mph - N/A   Clear
7:15 PM 40.8 °F 36.2 °F 10.6 °F 29% 30.11 in 10.0 mi NNW 6.9 mph - N/A   Clear
7:35 PM 41.2 °F 39.2 °F 9.0 °F 27% 30.12 in 10.0 mi North 3.5 mph - N/A   Clear
7:55 PM 39.6 °F - 10.6 °F 30% 30.13 in 10.0 mi Calm Calm - N/A   Clear
8:15 PM 40.1 °F 35.3 °F 10.6 °F 30% 30.13 in 10.0 mi North 6.9 mph - N/A   Clear
8:35 PM 39.7 °F 37.6 °F 11.3 °F 31% 30.14 in 10.0 mi North 3.5 mph - N/A   Clear
8:55 PM 40.1 °F 34.1 °F 11.5 °F 31% 30.15 in 10.0 mi North 9.2 mph - N/A   Clear
9:15 PM 39.4 °F 31.1 °F 12.0 °F 33% 30.15 in 10.0 mi North 15.0 mph 18.4 mph N/A   Clear
9:35 PM 38.8 °F 33.2 °F 12.0 °F 33% 30.16 in 10.0 mi North 8.1 mph - N/A   Clear
10:15 PM 38.3 °F 31.9 °F 13.1 °F 36% 30.18 in 10.0 mi North 9.2 mph - N/A   Clear
10:35 PM 38.3 °F 33.2 °F 13.5 °F 36% 30.17 in 10.0 mi North 6.9 mph - N/A   Clear
10:55 PM 37.8 °F 31.3 °F 13.5 °F 37% 30.16 in 10.0 mi North 9.2 mph - N/A   Clear
11:15 PM 37.8 °F 31.3 °F 13.8 °F 38% 30.16 in 10.0 mi North 9.2 mph 16.1 mph N/A   Clear
11:35 PM 37.2 °F 33.6 °F 14.0 °F 39% 30.15 in 10.0 mi North 4.6 mph - N/A   Clear
11:55 PM 36.5 °F 32.7 °F 14.5 °F 41% 30.15 in 10.0 mi North 4.6 mph - N/A   Clear